EW8080 Weather Reports


Display with metric or nautical units.
time (UTC)temp
F
wind
direction
speed
MPH
gust
MPH
rain 1hr
in
rain 24hr
in
rain mn
in
humidity
%
barometer
mb
20260506134003 68 241 13.0 24.0 0.00 0.00 0.00 70 1012.8
20260506133002 68 235 13.0 24.0 0.00 0.00 0.00 71 1013.0
20260506132003 67 222 9.0 25.0 0.00 0.00 0.00 72 1012.9
20260506131003 67 217 13.0 25.0 0.00 0.00 0.00 72 1012.7
20260506130004 66 230 12.0 28.0 0.00 0.00 0.00 74 1012.6
20260506125003 66 221 9.0 35.0 0.00 0.00 0.00 75 1012.6
20260506124003 64 217 10.0 35.0 0.00 0.00 0.00 76 1012.9
20260506123003 63 225 13.0 34.0 0.00 0.00 0.00 77 1012.9
20260506122003 63 224 14.0 26.0 0.00 0.00 0.00 79 1012.8
20260506121002 62 206 13.0 24.0 0.00 0.00 0.00 81 1013.0
20260506120003 60 219 13.0 24.0 0.00 0.00 0.00 85 1013.0
20260506115003 58 220 11.0 20.0 0.00 0.00 0.00 88 1013.2
20260506114003 57 214 11.0 21.0 0.00 0.00 0.00 88 1013.2
20260506113003 58 228 11.0 21.0 0.00 0.00 0.00 88 1013.3
20260506112003 58 220 12.0 20.0 0.00 0.00 0.00 89 1013.1
20260506111003 57 215 11.0 21.0 0.00 0.00 0.00 90 1013.1
20260506110003 56 214 10.0 21.0 0.00 0.00 0.00 91 1013.0
20260506105003 56 223 9.0 20.0 0.00 0.00 0.00 92 1013.1
20260506104003 56 227 9.0 20.0 0.00 0.00 0.00 92 1013.2
20260506103004 55 217 9.0 18.0 0.00 0.00 0.00 92 1013.1
20260506102003 55 212 10.0 18.0 0.00 0.00 0.00 93 1012.8
20260506101003 55 215 11.0 18.0 0.00 0.00 0.00 93 1012.9
20260506100003 55 214 8.0 18.0 0.00 0.00 0.00 93 1012.8
20260506095003 55 221 10.0 19.0 0.00 0.00 0.00 93 1012.9
20260506094004 55 217 9.0 20.0 0.00 0.00 0.00 93 1013.2
20260506093003 55 216 14.0 20.0 0.00 0.00 0.00 93 1013.1
20260506092003 55 218 10.0 25.0 0.00 0.00 0.00 92 1013.3
20260506091003 56 218 11.0 27.0 0.00 0.00 0.00 92 1013.3
20260506090003 56 213 9.0 27.0 0.00 0.00 0.00 93 1013.3
20260506085003 56 224 10.0 22.0 0.00 0.00 0.00 92 1013.1
20260506084003 56 211 12.0 24.0 0.00 0.00 0.00 93 1013.1
20260506083003 56 227 10.0 24.0 0.00 0.00 0.00 93 1013.2
20260506082003 56 206 16.0 24.0 0.00 0.00 0.00 94 1013.3
20260506081003 56 220 14.0 24.0 0.00 0.00 0.00 94 1013.5
20260506073004 55 230 8.0 22.0 0.00 0.00 0.00 93 1013.1
20260506072003 55 216 12.0 22.0 0.00 0.00 0.00 92 1013.3
20260506071003 55 220 15.0 23.0 0.00 0.00 0.00 92 1013.0
20260506062002 55 217 14.0 24.0 0.00 0.00 0.00 90 1013.1
20260506061024 55 210 13.0 24.0 0.00 0.00 0.00 90 1013.1
20260506051003 56 221 11.0 20.0 0.00 0.00 0.00 89 1013.5
20260506045003 55 215 11.0 21.0 0.00 0.00 0.00 90 1013.7
20260506044002 55 218 10.0 19.0 0.00 0.00 0.00 89 1013.5
20260506043003 55 220 10.0 19.0 0.00 0.00 0.00 90 1013.7
20260506042004 55 239 9.0 22.0 0.00 0.00 0.00 89 1013.6
20260506041003 55 218 11.0 22.0 0.00 0.00 0.00 89 1013.7
20260506040004 55 203 14.0 19.0 0.00 0.00 0.00 89 1013.6
20260506035003 55 226 10.0 24.0 0.00 0.00 0.00 87 1013.7
20260506034003 55 233 12.0 24.0 0.00 0.00 0.00 87 1013.7
20260506033003 55 223 10.0 26.0 0.00 0.00 0.00 86 1013.6
20260506032003 55 233 8.0 26.0 0.00 0.00 0.00 87 1013.5
20260506031003 55 229 13.0 23.0 0.00 0.00 0.00 87 1013.3
20260506030003 55 225 14.0 21.0 0.00 0.00 0.00 86 1013.3
20260506025003 55 214 12.0 23.0 0.00 0.00 0.00 85 1013.2
20260506024003 55 225 12.0 23.0 0.00 0.00 0.00 84 1013.5
20260506023003 55 218 14.0 21.0 0.00 0.00 0.00 83 1013.3
20260506022003 55 220 9.0 21.0 0.00 0.00 0.00 82 1013.5
20260506021003 55 221 14.0 21.0 0.00 0.00 0.00 82 1013.4
20260506020003 55 220 10.0 20.0 0.00 0.00 0.00 81 1013.5
20260506015003 55 209 11.0 18.0 0.00 0.00 0.00 80 1013.4
20260506014003 55 221 12.0 17.0 0.00 0.00 0.00 79 1013.3
20260506013003 55 217 13.0 17.0 0.00 0.00 0.00 79 1013.4
20260506012003 55 217 9.0 15.0 0.00 0.00 0.00 79 1013.5
20260506011003 55 217 10.0 24.0 0.00 0.00 0.00 79 1013.1
20260506010003 56 210 7.0 24.0 0.00 0.00 0.00 79 1013.4
20260506005024 56 206 9.0 19.0 0.00 0.00 0.00 79 1013.3
20260506004003 56 225 10.0 23.0 0.00 0.00 0.00 80 1012.9
20260506003003 56 224 12.0 23.0 0.00 0.00 0.00 80 1012.6
20260506002003 56 213 11.0 23.0 0.00 0.00 0.00 80 1012.3
20260506001003 56 221 13.0 25.0 0.00 0.00 0.00 80 1012.0
20260506000024 56 223 11.0 25.0 0.00 0.00 0.00 80 1011.9
20260505235003 56 219 10.0 23.0 0.00 0.00 0.00 80 1011.9
20260505234025 56 211 12.0 23.0 0.00 0.00 0.00 80 1011.8
20260505233003 57 222 10.0 21.0 0.00 0.00 0.00 80 1012.0
20260505232003 57 229 12.0 21.0 0.00 0.00 0.00 80 1011.8
20260505231003 57 224 11.0 22.0 0.00 0.00 0.00 80 1012.0
20260505230003 57 224 12.0 25.0 0.00 0.00 0.00 79 1011.4
20260505225003 57 203 14.0 29.0 0.00 0.00 0.00 79 1011.2
20260505224003 58 217 11.0 29.0 0.00 0.00 0.00 78 1011.6
20260505223003 58 223 16.0 29.0 0.00 0.00 0.00 77 1011.2
20260505222003 59 223 15.0 25.0 0.00 0.00 0.00 76 1011.0
20260505221003 59 222 14.0 24.0 0.00 0.00 0.00 75 1010.9
20260505220003 60 231 14.0 27.0 0.00 0.00 0.00 75 1011.1
20260505215003 60 211 11.0 27.0 0.00 0.00 0.00 74 1011.0
20260505214003 60 218 16.0 29.0 0.00 0.00 0.00 74 1010.9
20260505213004 60 225 14.0 29.0 0.00 0.00 0.00 73 1010.9
20260505212003 61 222 13.0 26.0 0.00 0.00 0.00 73 1010.6
20260505211003 61 217 13.0 26.0 0.00 0.00 0.00 73 1010.6
20260505210004 61 233 13.0 24.0 0.00 0.00 0.00 72 1010.8
20260505205003 61 218 15.0 28.0 0.00 0.00 0.00 72 1010.7
20260505204003 62 211 16.0 28.0 0.00 0.00 0.00 72 1010.7
20260505203003 62 215 13.0 24.0 0.00 0.00 0.00 71 1010.6
20260505202025 63 207 14.0 29.0 0.00 0.00 0.00 70 1010.4
20260505201003 63 210 13.0 29.0 0.00 0.00 0.00 70 1010.9
20260505200003 63 215 15.0 25.0 0.00 0.00 0.00 71 1010.9
20260505195003 63 215 12.0 27.0 0.00 0.00 0.00 71 1011.1
20260505194003 63 225 14.0 27.0 0.00 0.00 0.00 71 1011.3
20260505193003 63 223 16.0 26.0 0.00 0.00 0.00 69 1011.2
20260505192005 64 218 12.0 25.0 0.00 0.00 0.00 70 1011.1
20260505191004 64 225 15.0 25.0 0.00 0.00 0.00 70 1011.2
20260505190003 65 212 14.0 24.0 0.00 0.00 0.00 70 1011.3
20260505185003 65 222 15.0 28.0 0.00 0.00 0.00 69 1011.3
20260505184003 65 214 13.0 28.0 0.00 0.00 0.00 68 1011.5
20260505183003 65 212 13.0 19.0 0.00 0.00 0.00 69 1011.3
20260505182004 65 197 17.0 25.0 0.00 0.00 0.00 67 1011.6
20260505181003 66 202 11.0 33.0 0.00 0.00 0.00 68 1011.6
20260505180003 66 211 14.0 33.0 0.00 0.00 0.00 68 1011.8
20260505175024 66 210 14.0 33.0 0.00 0.00 0.00 66 1011.9
20260505174003 66 212 12.0 19.0 0.00 0.00 0.00 67 1011.9
20260505173003 67 207 12.0 19.0 0.00 0.00 0.00 68 1011.8
20260505172003 66 226 9.0 22.0 0.00 0.00 0.00 69 1012.0
20260505171004 66 211 9.0 22.0 0.00 0.00 0.00 69 1012.0
20260505170004 66 206 13.0 21.0 0.00 0.00 0.00 67 1012.2
20260505165003 66 203 15.0 24.0 0.00 0.00 0.00 67 1012.3
20260505164003 67 213 11.0 24.0 0.00 0.00 0.00 67 1012.4
20260505163024 67 196 11.0 22.0 0.00 0.00 0.00 67 1012.4
20260505162003 67 210 7.0 22.0 0.00 0.00 0.00 69 1012.3
20260505161024 66 190 13.0 23.0 0.00 0.00 0.00 68 1012.5
20260505153003 66 219 13.0 19.0 0.00 0.00 0.00 67 1012.7
20260505152003 68 223 9.0 19.0 0.00 0.00 0.00 65 1012.7
20260505151024 68 220 9.0 28.0 0.00 0.00 0.00 65 1012.6